Location: Chiroubles
(46.1812°N, 4.6660°E)
Time: 11:56:02
(UTC+00:00)

N. Korean satellite - Pass Details

Date: 02 November 2020
Orbit: 453 x 503 km, 97.2° (Epoch: 03 December)

Event Time Altitude Azimuth Distance (km) Brightness Sun altitude
Rises 04:20:21 0° 29° (NNE) 2,477 10.6 -21.8°
Reaches altitude 10° 04:22:59 10° 51° (NE) 1,598 9.9 -21.3°
Maximum altitude 04:25:13 16° 92° (E) 1,254 9.6 -21.0°
Drops below altitude 10° 04:27:28 10° 134° (SE) 1,594 9.8 -20.6°
Sets 04:30:04 0° 156° (SSE) 2,467 10.5 -20.1°
